Regional Weather Roundup
Issued by NWS

Home | Current Version | Previous Version | Text Only | Print | Product List | Glossary On
Versions: 1 2 3 4 5 6 7 8 9 10 11 12 13 14 15 16 17 18 19 20 21 22 23 24 25 26 27 28 29 30 31 32 33 34 35 36 37 38 39 40 41 42 43 44 45 46 47 48 49 50
000
ASUS44 KFWD 221610
RWRTX
NORTH TEXAS HOURLY WEATHER ROUNDUP
NATIONAL WEATHER SERVICE FORT WORTH TX
1000 AM CST MON DEC 22 2014

NOTE: "FAIR" INDICATES FEW OR NO CLOUDS BELOW 12,000 FEET WITH NO
SIGNIFICANT WEATHER AND/OR OBSTRUCTIONS TO VISIBILITY.

TXZ118-119-221700-
DALLAS/FORT WORTH METROPLEX

CITY           SKY/WX    TMP DP  RH WIND       PRES   REMARKS
DFW AIRPORT    MOSUNNY   59  49  69 SW13      29.60S
DALLAS LOVE    MOSUNNY   59  50  72 SW14G22   29.60F
FTW MEACHAM    SUNNY     59  48  67 SW10      29.59S
DAL-EXECUTIVE  SUNNY     62  50  64 SW10G23   29.60F
FTW-ALLIANCE   MOSUNNY   57  46  66 SW12      29.59S
FTW-SPINKS     SUNNY     59  48  67 SW10G17   29.63R
ARLINGTON      SUNNY     61  48  62 SW13      29.61S
GRAND PRAIRIE  SUNNY     59  52  77 S12       29.62
ADDISON        MOSUNNY   59  50  72 S10G18    29.61S
LANCASTER      SUNNY     58  51  77 S13       29.63S
$$

TXZ091>094-102>105-117-120-121-131>134-221700-
NORTH CENTRAL TEXAS

CITY           SKY/WX    TMP DP  RH WIND       PRES   REMARKS
SHRMAN/DENISON PTSUNNY   58  51  80 SW13      29.59F
GAINESVILLE    SUNNY     52  45  77 SW8       29.61R
BOWIE          SUNNY     50  44  78 W15       29.61R
BRIDGEPORT     SUNNY     54  42  65 NW8G16    29.62R
DECATUR        SUNNY     53  43  69 W9        29.60R
DENTON         SUNNY     57  47  69 SW15      29.59S
MCKINNEY       SUNNY     58  51  78 S15       29.60S
GREENVILLE     MOSUNNY   59  52  77 S18       29.61F
ROCKWALL       MOSUNNY   60  53  78 SW17G23   29.60S
TERRELL        MOSUNNY   62  53  72 SW18G29   29.62F
WAXAHACHIE     SUNNY     59  53  80 SW16G24   29.63S
CLEBURNE       SUNNY     59  50  72 SW13      29.64R
GRANBURY       SUNNY     61  46  56 SW8       29.63R
$$

TXZ083>090-098>101-113>116-127>130-139>142-154-155-221700-
WESTERN NORTH TEXAS

CITY           SKY/WX    TMP DP  RH WIND       PRES   REMARKS
WICHITA FALLS  CLOUDY    45  43  93 NW14      29.64R WCI  38
WF-KICKAPOO    CLOUDY    45  45  98 N9        29.65R
VERNON         PTSUNNY   49  40  70 NW13      29.67R
ABILENE        MOSUNNY   61  34  36 NW16G26   29.69R
BRECKENRIDGE   SUNNY     58  33  38 NW16G23   29.66R
GRAHAM         SUNNY     52  42  68 NW13G18   29.64R
MINERAL WELLS  SUNNY     57  42  57 W13       29.61R
STEPHENVILLE   SUNNY     58  44  58 SW12      29.67R
COMANCHE       SUNNY     58  45  60 W12G21    29.66R
BROWNWOOD      MOSUNNY   59  43  55 W9        29.69R
COLEMAN        PTSUNNY   60  41  50 W15       29.70R
BRADY          SUNNY     61  45  55 SW13      29.70S
$$

TXZ143>147-156>162-174-175-221700-
CENTRAL TEXAS

CITY           SKY/WX    TMP DP  RH WIND       PRES   REMARKS
WACO           MOSUNNY   61  52  72 SW14      29.66S
WACO-TSTC      SUNNY     61  54  77 SW16      29.66F
WACO-MCGREGOR  MOSUNNY   63  52  67 SW14G22   29.67S
HILLSBORO      SUNNY     60  52  77 SW15      29.65R
CORSICANA      MOSUNNY   62  53  72 SW15G24   29.65F
MEXIA          PTSUNNY   60  54  80 S14       29.66F
HEARNE         PTSUNNY   63  55  76 S16       29.72S
CAMERON        PTSUNNY   61  54  78 SW16G25   29.71R
TEMPLE         MOSUNNY   61  48  63 SW15      29.67S
KILLEEN        NOT AVBL
KILLEEN-SKYLRK MOSUNNY   57  48  72 SW14      29.66S
GATESVILLE     MOSUNNY   61  48  63 W15G21    29.68S
HAMILTON       MOSUNNY   61  45  56 W18G28    29.68R
LAMPASAS       MOSUNNY   58  51  77 SW9       29.69
$$

TXZ095>097-106>112-122>126-135>138-148>153-164>167-221700-
EAST TEXAS

CITY           SKY/WX    TMP DP  RH WIND       PRES   REMARKS
PARIS          CLOUDY    59  52  77 S14       29.63S
SULPHUR SPRNGS CLOUDY    61  53  76 SW15G23   29.65S
MOUNT PLEASANT CLOUDY    59  53  82 S9        29.66F
MINEOLA        CLOUDY    63  55  77 S8        29.65F
TYLER          CLOUDY    62  54  74 SW16      29.65S
LONGVIEW       PTSUNNY   60  55  83 S16G23    29.67F
MARSHALL       CLOUDY    58  56  91 S9        29.71S
ATHENS         CLOUDY    61  54  77 S13G20    29.64F
PALESTINE      CLOUDY    64  56  76 S23       29.69S
JACKSONVILLE   CLOUDY    61  57  88 S12G18    29.69F
HENDERSON      CLOUDY    59  57  95 S8        29.69S
NACOGDOCHES    CLOUDY    57  55  94 SW9       29.72S
LUFKIN         CLOUDY    63  58  83 S8        29.72S
$$

SUPPLEMENTAL OBSERVATIONS (CENTRAL)

CITY           SKY/WX    TMP DP  RH WIND       PRES   REMARKS
CADDO GRASSLND   N/A     57  50  77 S14         N/A
PAT MAYSE LAKE   N/A     57  52  82 SE15        N/A
GREENVILLE       N/A     61  52  72 SW15G23     N/A
CEDAR HILL       N/A     61  50  67 SW9G17      N/A
PALESTINE        N/A     64  55  72 SW10G25     N/A
MCGREGOR         N/A     63  52  67 SW9G17      N/A
TEMPLE           N/A     59  52  77 SW2G10      N/A
$$

SUPPLEMENTAL OBSERVATIONS (WEST)

CITY           SKY/WX    TMP DP  RH WIND       PRES   REMARKS
POSSUM KINGDOM   N/A     55  36  47 NW15G23     N/A
LBJ GRASSLAND    N/A     54  45  71 W8          N/A
GRANBURY         N/A     61  43  51 W12         N/A
HAMBY            N/A     59  36  41 N14         N/A
IVIE RESERVOIR   N/A     63  37  39 W21G28      N/A
COLORADO BEND    N/A     59  46  63 W12         N/A
$$

SUPPLEMENTAL OBSERVATIONS (EAST)

CITY           SKY/WX    TMP DP  RH WIND       PRES   REMARKS
CLARKSVILLE      N/A     59  55  88 S13         N/A
GILMER           N/A     61  55  82 S9          N/A
HENDERSON        N/A     61  57  88 S14         N/A
LUFKIN           N/A     61  55  82 MISG        N/A
N SABINE NF      N/A     55  52  88 MISG        N/A
S SABINE NF      N/A     55  52  88 S3          N/A
$$

SUPPLEMENTAL OBSERVATIONS ARE A COLLECTION OF AUTOMATED INSTRUMENTS
THAT ARE MAINTAINED BY A VARIETY OF FEDERAL AND STATE AGENCIES.
CERTAIN ELEMENTS...SUCH AS HUMIDITY VALUES AND SUSTAINED WIND
SPEEDS...MAY BE APPROXIMATED.




USA.gov is the U.S. government's official web portal to all federal, state and local government web resources and services.